Погода в Черной Речке

Россия / Рязанская область     53°51′31″N   40°44′39″E
темп.,
°C
ветер,
м/с
пор.,
м/с
влажн.,
%
обл.,
%
осадки,
мм/ч
давл.,
гПа
погр.,
м
22 октября, пт
пт2200:00+12юз91766100 0.0 1002727
03:00+11юз91771100 0.0 1001642
06:00+10юз91772100 0.0 1000685
09:00+10юз81574100 0.0 1001605
12:00+11юз81573100 0.0 1002855
15:00+14зюз9156557 0.0 10031457
18:00+11зюз814655 0.0 1005788
21:00+10зюз714688 0.0 1007687
23 октября, сб
сб2300:00+8юз612720 0.0 1008459
03:00+7юз714765 0.0 1008498
06:00+6юз613735 0.0 1008480
09:00+7юз613665 0.0 1009611
12:00+10юз813456 0.0 10091492
15:00+11зюз6124633 0.0 10081704
18:00+9зюз7125997 0.1 1009910
21:00+6з712685 0.1 1010822
24 октября, вс
вс2400:00+5зюз612795 0.0 1011605
03:00+4зюз612815 0.0 1012560
06:00+4зюз6117963 0.0 1012452
09:00+4зюз71378100 0.0 1012893
12:00+4з6989100 0.3 1013970
15:00+4з6990100 0.6 1014698
18:00+3з5795100 0.3 1015521
21:00+2сз3698100 0.6 1016280
25 октября, пн
пн2500:00+2сз598499 0.6 1017666
03:00+1сз71189100 0.7 1019759
06:000ссз7128479 0.1 1022815
09:00+1ссз7107598 0.1 1024956
12:00+2с796283 0.0 10261066
15:00+3с68515 0.0 10281169
18:00+1ссз386594 0.0 1030266
21:00−1сз35745 0.0 1031105
26 октября, вт
вт2600:00−1з34765 0.0 1031101
03:00−1зюз3775100 0.0 1031186
06:00−1зюз410745 0.0 1031252
09:00+1зюз612625 0.0 1030394
12:00+5зюз71043100 0.0 1028629
15:00+5зюз6114537 0.0 1027660
18:00+3юз613528 0.0 1026409
21:00+2юз61556100 0.0 1024397